Terre Haute, IN

12:29 PM EDT on September 26, 2016 (GMT -0400)
Terre Haute International-Hulman

Weather History for KHUF - January, 2013

Change the Weather History Date:

Friday, January 4, 2013

  Actual Average Record
Temperature  
Mean Temperature 24 °F 28 °F  
Max Temperature 32 °F 36 °F 64 °F (1997)
Min Temperature 15 °F 20 °F -4 °F (1969)
Degree Days  
Heating Degree Days 41 37  
Month to date heating degree days 181 148  
Since 1 July heating degree days 2115 2259  
Cooling Degree Days 0 0  
Month to date cooling degree days 0 0  
Year to date cooling degree days 0 0  
Moisture  
Dew Point 18 °F    
Average Humidity 78    
Maximum Humidity 92    
Minimum Humidity 63    
Precipitation  
Precipitation 0.05 in 0.10 in 1.67 in (2004)
Month to date precipitation 0.05 0.40  
Year to date precipitation 0.05 0.40  
Sea Level Pressure  
Sea Level Pressure 30.38 in    
Wind  
Wind Speed 6 mph (WSW)    
Max Wind Speed 15 mph    
Max Gust Speed 20 mph    
Visibility 10 miles    
Events      
T = Trace of Precipitation, MM = Missing Value Source: NWS Daily Summary

Daily Weather History Graph

Daily Weather History Graph

Search for Another Location

Airport or City:

Trip Planner

Search our weather history database for the weather conditions in past years. The results will help you decide how hot, cold, wet, or windy it might be!

Date:

Astronomy

Jan. 04, 2013 Rise Set
Actual Time 8:09 AM EST 5:39 PM EST
Civil Twilight 7:39 AM EST 6:09 PM EST
Nautical Twilight 7:06 AM EST 6:42 PM EST
Astronomical Twilight 6:33 AM EST 7:15 PM EST
Moon 12:11 AM EST (1/4) 11:54 AM EST (1/4)
Length of Visible Light 10h 29m
Length of Day
9h 29m
Waning Gibbous, 55% of the Moon is Illuminated
Jan 4
Waning Gibbous
Jan 4
Last Quarter
Jan 11
New
Jan 18
First Quarter
Jan 26
Full

Hourly Weather History & Observations

Time (EST) Temp. Windchill Dew Point Humidity Pressure Visibility Wind Dir Wind Speed Gust Speed Precip Events Conditions
12:06 AM 30.2 °F 21.9 °F 23.0 °F 75% 30.36 in 10.0 mi West 9.2 mph - N/A   Overcast
12:53 AM 28.9 °F 23.9 °F 21.9 °F 75% 30.37 in 10.0 mi West 4.6 mph - N/A   Overcast
1:53 AM 27.0 °F 23.0 °F 19.0 °F 72% 30.35 in 10.0 mi WNW 3.5 mph - N/A   Mostly Cloudy
2:53 AM 19.9 °F - 17.1 °F 89% 30.36 in 10.0 mi Calm Calm - N/A   Clear
3:53 AM 16.0 °F 10.4 °F 14.0 °F 92% 30.38 in 9.0 mi WNW 3.5 mph - N/A   Overcast
4:15 AM 24.8 °F 17.9 °F 19.4 °F 80% 30.35 in 10.0 mi West 5.8 mph - N/A   Overcast
4:53 AM 24.1 °F 17.0 °F 19.0 °F 81% 30.38 in 10.0 mi NW 5.8 mph - N/A   Overcast
5:53 AM 21.9 °F 14.5 °F 16.0 °F 78% 30.37 in 10.0 mi West 5.8 mph - N/A   Partly Cloudy
6:18 AM 21.2 °F - 17.6 °F 86% 30.34 in 10.0 mi Calm Calm - N/A   Mostly Cloudy
6:53 AM 19.9 °F 13.4 °F 15.1 °F 81% 30.38 in 10.0 mi West 4.6 mph - N/A   Scattered Clouds
7:53 AM 18.0 °F - 15.1 °F 88% 30.38 in 9.0 mi Calm Calm - N/A   Clear
8:53 AM 18.0 °F 12.7 °F 14.0 °F 84% 30.40 in 8.0 mi WNW 3.5 mph - N/A   Clear
9:53 AM 21.0 °F 13.4 °F 15.1 °F 78% 30.41 in 9.0 mi WSW 5.8 mph - N/A   Clear
10:53 AM 24.1 °F 12.5 °F 15.1 °F 69% 30.43 in 10.0 mi West 12.7 mph - N/A   Clear
11:53 AM 26.1 °F 14.0 °F 16.0 °F 66% 30.42 in 10.0 mi West 15.0 mph - N/A   Clear
12:53 PM 28.0 °F 19.3 °F 17.1 °F 63% 30.40 in 10.0 mi West 9.2 mph - 0.01 in   Clear
1:53 PM 28.9 °F 19.2 °F 19.0 °F 67% 30.38 in 10.0 mi SW 11.5 mph - 0.02 in   Clear
2:53 PM 30.0 °F 21.1 °F 19.9 °F 66% 30.36 in 10.0 mi SW 10.4 mph - 0.02 in   Clear
3:53 PM 30.0 °F 21.1 °F 21.0 °F 69% 30.37 in 10.0 mi WSW 10.4 mph - N/A   Clear
4:53 PM 30.0 °F 24.1 °F 19.9 °F 66% 30.37 in 10.0 mi SW 5.8 mph - N/A   Clear
5:53 PM 28.9 °F 21.9 °F 19.9 °F 69% 30.37 in 10.0 mi SSW 6.9 mph - N/A   Clear
6:53 PM 26.1 °F 19.4 °F 19.0 °F 75% 30.37 in 10.0 mi SSW 5.8 mph - N/A   Clear
7:53 PM 26.1 °F 17.6 °F 19.0 °F 75% 30.38 in 10.0 mi SSW 8.1 mph - N/A   Clear
8:53 PM 23.0 °F 17.0 °F 18.0 °F 81% 30.36 in 10.0 mi South 4.6 mph - N/A   Clear
9:53 PM 25.0 °F 19.3 °F 19.9 °F 81% 30.36 in 10.0 mi SSW 4.6 mph - N/A   Clear
10:53 PM 18.0 °F 11.1 °F 15.1 °F 88% 30.36 in 8.0 mi SW 4.6 mph - N/A   Clear
11:53 PM 25.0 °F 18.1 °F 19.9 °F 81% 30.37 in 10.0 mi SSW 5.8 mph - N/A   Clear